When you browse on this site, cookies collect data to enhance your experience and personalize the content and advertising you see.
Visit our Privacy Policy to learn more. By continuing to use the site, you agree to this use of cookies and data.
  • In Belgien
  • Länderverzeichnis
  • Für 7 Tage
  • Wassertemperatur
  • Wetterkarte
  • Widgets
  • user-avatar
    Anmelden

    Stündliche Wetter Ponizovka

    Heute, 26 Februar, Mittwoch

    Zeit Temperatur Niederschläge Wind Luftdruck Luftfeuchtigkeit
    00:00 -7°C° 0 mm 3 m/S 736 mmHg 86%
    01:00 -7°C° 0 mm 3 m/S 735 mmHg 87%
    02:00 -7°C° 0 mm 3 m/S 735 mmHg 88%
    03:00 -6°C° 0 mm 3 m/S 735 mmHg 91%
    04:00 -7°C° 0 mm 4 m/S 734 mmHg 93%
    05:00 -5°C° 0 mm 4 m/S 734 mmHg 94%
    06:00 -4°C° 0 mm 4 m/S 733 mmHg 96%
    07:00 -5°C° 0 mm 5 m/S 733 mmHg 95%
    08:00 -5°C° 0 mm 5 m/S 733 mmHg 95%
    09:00 -4°C° 0 mm 5 m/S 733 mmHg 95%
    10:00 -4°C° 0.1 mm 5 m/S 732 mmHg 96%
    11:00 -3°C° 0.1 mm 6 m/S 732 mmHg 97%
    12:00 -3°C° 0.1 mm 6 m/S 731 mmHg 99%
    13:00 -3°C° 0.5 mm 6 m/S 731 mmHg 99%
    14:00 -2°C° 0.5 mm 6 m/S 731 mmHg 99%
    15:00 -2°C° 0.5 mm 6 m/S 731 mmHg 99%
    16:00 -2°C° 0.2 mm 6 m/S 730 mmHg 99%
    17:00 -2°C° 0.2 mm 6 m/S 730 mmHg 99%
    18:00 0°C° 0.2 mm 5 m/S 730 mmHg 98%
    19:00 0°C° 0.1 mm 5 m/S 730 mmHg 98%
    20:00 -1°C° 0.1 mm 4 m/S 730 mmHg 98%
    21:00 -1°C° 0.1 mm 4 m/S 730 mmHg 98%
    22:00 -1°C° 0.1 mm 4 m/S 730 mmHg 98%
    23:00 0°C° 0.1 mm 3 m/S 730 mmHg 98%

    Morgen, 27 Februar, Donnerstag

    Zeit Temperatur Niederschläge Wind Luftdruck Luftfeuchtigkeit
    00:00 0°C° 0.1 mm 3 m/S 730 mmHg 98%
    01:00 0°C° 0.1 mm 3 m/S 730 mmHg 98%
    02:00 0°C° 0.1 mm 3 m/S 730 mmHg 98%
    03:00 0°C° 0.1 mm 3 m/S 730 mmHg 98%
    04:00 -1°C° 0 mm 4 m/S 730 mmHg 98%
    05:00 -1°C° 0 mm 4 m/S 729 mmHg 97%
    06:00 -1°C° 0 mm 5 m/S 729 mmHg 96%
    07:00 -1°C° 0 mm 5 m/S 729 mmHg 96%
    08:00 -2°C° 0 mm 6 m/S 729 mmHg 95%
    09:00 -2°C° 0 mm 6 m/S 729 mmHg 94%
    10:00 -2°C° 0 mm 6 m/S 728 mmHg 96%
    11:00 -2°C° 0 mm 6 m/S 728 mmHg 98%
    12:00 -2°C° 0 mm 6 m/S 728 mmHg 99%
    13:00 0°C° 0 mm 5 m/S 728 mmHg 99%
    14:00 0°C° 0 mm 5 m/S 728 mmHg 99%
    15:00 0°C° 0 mm 4 m/S 728 mmHg 99%
    16:00 0°C° 0 mm 4 m/S 728 mmHg 99%
    17:00 0°C° 0 mm 4 m/S 728 mmHg 99%
    18:00 +1°C° 0 mm 3 m/S 728 mmHg 99%
    19:00 +1°C° 0 mm 3 m/S 728 mmHg 99%
    20:00 +1°C° 0 mm 3 m/S 728 mmHg 99%
    21:00 +1°C° 0 mm 3 m/S 729 mmHg 99%
    22:00 0°C° 0 mm 3 m/S 729 mmHg 98%
    23:00 +1°C° 0 mm 2 m/S 729 mmHg 97%

    übermorgen, 28 Februar, Freitag

    Zeit Temperatur Niederschläge Wind Luftdruck Luftfeuchtigkeit
    00:00 +1°C° 0 mm 2 m/S 729 mmHg 96%
    01:00 +2°C° 0 mm 1 m/S 729 mmHg 95%
    02:00 +2°C° 0 mm 1 m/S 729 mmHg 93%
    03:00 +1°C° 0 mm 0 m/S 729 mmHg 92%
    04:00 +2°C° 0.4 mm 1 m/S 728 mmHg 94%
    05:00 +1°C° 0.4 mm 2 m/S 728 mmHg 96%
    06:00 +1°C° 0.4 mm 2 m/S 728 mmHg 98%
    07:00 -1°C° 2.1 mm 3 m/S 728 mmHg 98%
    08:00 -2°C° 2.1 mm 4 m/S 727 mmHg 99%
    09:00 -2°C° 2.1 mm 4 m/S 727 mmHg 99%
    10:00 -2°C° 0.4 mm 5 m/S 727 mmHg 99%
    11:00 -2°C° 0.4 mm 5 m/S 727 mmHg 99%
    12:00 -2°C° 0.4 mm 5 m/S 727 mmHg 99%
    13:00 -2°C° 0.3 mm 5 m/S 728 mmHg 98%
    14:00 -1°C° 0.3 mm 4 m/S 729 mmHg 98%
    15:00 -1°C° 0.3 mm 4 m/S 729 mmHg 98%
    16:00 -2°C° 0 mm 4 m/S 730 mmHg 94%
    17:00 -2°C° 0 mm 4 m/S 731 mmHg 91%
    18:00 -2°C° 0 mm 3 m/S 732 mmHg 87%
    19:00 -3°C° 0 mm 4 m/S 733 mmHg 87%
    20:00 -3°C° 0 mm 4 m/S 734 mmHg 87%
    21:00 -4°C° 0 mm 4 m/S 735 mmHg 86%
    22:00 -4°C° 0 mm 4 m/S 735 mmHg 87%
    23:00 -4°C° 0 mm 3 m/S 735 mmHg 87%

    29 Februar, Samstag

    Zeit Temperatur Niederschläge Wind Luftdruck Luftfeuchtigkeit
    00:00 -5°C° 0 mm 3 m/S 735 mmHg 88%
    01:00 -5°C° 0 mm 3 m/S 736 mmHg 88%
    02:00 -5°C° 0 mm 3 m/S 736 mmHg 88%
    03:00 -5°C° 0 mm 3 m/S 736 mmHg 88%
    04:00 -5°C° 0 mm 3 m/S 736 mmHg 88%
    05:00 -4°C° 0 mm 2 m/S 736 mmHg 88%
    06:00 -4°C° 0 mm 2 m/S 736 mmHg 88%
    07:00 -3°C° 0 mm 2 m/S 737 mmHg 88%
    08:00 -3°C° 0 mm 2 m/S 737 mmHg 88%
    09:00 -3°C° 0 mm 2 m/S 737 mmHg 88%
    10:00 -2°C° 0 mm 2 m/S 737 mmHg 88%
    11:00 -2°C° 0 mm 2 m/S 737 mmHg 88%
    12:00 -1°C° 0 mm 2 m/S 737 mmHg 88%
    13:00 -1°C° 0 mm 2 m/S 737 mmHg 89%
    14:00 -1°C° 0 mm 2 m/S 737 mmHg 90%
    15:00 +1°C° 0 mm 1 m/S 737 mmHg 92%
    16:00 +1°C° 0 mm 1 m/S 737 mmHg 91%
    17:00 0°C° 0 mm 1 m/S 738 mmHg 90%
    18:00 0°C° 0 mm 1 m/S 738 mmHg 89%
    19:00 -1°C° 0 mm 1 m/S 738 mmHg 88%
    20:00 -1°C° 0 mm 1 m/S 739 mmHg 88%
    21:00 -1°C° 0 mm 1 m/S 739 mmHg 87%
    22:00 -2°C° 0 mm 0 m/S 739 mmHg 87%
    23:00 -2°C° 0 mm 0 m/S 740 mmHg 86%

    1 März, Sonntag

    Zeit Temperatur Niederschläge Wind Luftdruck Luftfeuchtigkeit
    00:00 -2°C° 0 mm 0 m/S 740 mmHg 86%
    01:00 -2°C° 0 mm 0 m/S 740 mmHg 86%
    02:00 -2°C° 0 mm 0 m/S 741 mmHg 86%
    03:00 -2°C° 0 mm 0 m/S 741 mmHg 86%
    04:00 -1°C° 0 mm 1 m/S 742 mmHg 87%
    05:00 -2°C° 0 mm 1 m/S 742 mmHg 87%
    06:00 -2°C° 0 mm 1 m/S 743 mmHg 87%
    07:00 -2°C° 0 mm 1 m/S 743 mmHg 88%
    08:00 -4°C° 0 mm 2 m/S 744 mmHg 89%
    09:00 -4°C° 0 mm 2 m/S 744 mmHg 90%
    10:00 -1°C° 0 mm 1 m/S 744 mmHg 89%
    11:00 0°C° 0 mm 1 m/S 745 mmHg 88%
    12:00 +1°C° 0 mm 1 m/S 745 mmHg 88%
    13:00 +1°C° 0 mm 1 m/S 745 mmHg 89%
    14:00 +1°C° 0 mm 1 m/S 745 mmHg 90%
    15:00 0°C° 0 mm 0 m/S 745 mmHg 91%
    16:00 +1°C° 0 mm 1 m/S 745 mmHg 90%
    17:00 0°C° 0 mm 1 m/S 746 mmHg 89%
    18:00 -1°C° 0 mm 1 m/S 746 mmHg 87%
    19:00 -1°C° 0 mm 1 m/S 746 mmHg 87%
    20:00 -3°C° 0 mm 2 m/S 746 mmHg 87%
    21:00 -3°C° 0 mm 2 m/S 747 mmHg 87%
    22:00 -3°C° 0 mm 2 m/S 747 mmHg 88%
    23:00 -3°C° 0 mm 2 m/S 747 mmHg 90%

    2 März, Montag

    Zeit Temperatur Niederschläge Wind Luftdruck Luftfeuchtigkeit
    00:00 -4°C° 0 mm 3 m/S 747 mmHg 91%
    01:00 -4°C° 0 mm 3 m/S 747 mmHg 92%
    02:00 -4°C° 0 mm 3 m/S 747 mmHg 92%
    03:00 -4°C° 0 mm 3 m/S 747 mmHg 93%
    04:00 -4°C° 0 mm 3 m/S 747 mmHg 93%
    05:00 -4°C° 0 mm 3 m/S 746 mmHg 94%
    06:00 -4°C° 0 mm 3 m/S 746 mmHg 95%
    07:00 -4°C° 0 mm 4 m/S 746 mmHg 95%
    08:00 -4°C° 0 mm 5 m/S 746 mmHg 95%
    09:00 -4°C° 0 mm 5 m/S 746 mmHg 95%
    10:00 -2°C° 0 mm 5 m/S 746 mmHg 93%
    11:00 -2°C° 0 mm 5 m/S 746 mmHg 91%
    12:00 -1°C° 0 mm 5 m/S 746 mmHg 90%
    13:00 -1°C° 0 mm 5 m/S 746 mmHg 90%
    14:00 -1°C° 0 mm 5 m/S 745 mmHg 90%
    15:00 -1°C° 0 mm 5 m/S 745 mmHg 91%
    16:00 -1°C° 0 mm 5 m/S 745 mmHg 90%
    17:00 -1°C° 0 mm 4 m/S 745 mmHg 90%
    18:00 -1°C° 0 mm 4 m/S 744 mmHg 89%
    19:00 -1°C° 0 mm 4 m/S 744 mmHg 89%
    20:00 -1°C° 0 mm 4 m/S 745 mmHg 88%
    21:00 -1°C° 0 mm 4 m/S 745 mmHg 88%
    22:00 -1°C° 0 mm 4 m/S 745 mmHg 88%
    23:00 -1°C° 0 mm 4 m/S 745 mmHg 87%
    Mehr zeigen